Location: Ostrava
(49.8330°N, 18.2830°E)
Time: 21:56:38
(UTC+02:00)

Transit 2A - All Passes

Search period start: 19 October 2017 00:00
Search period end: 29 October 2017 00:00
Orbit: 592 x 967 km, 66.7° (Epoch: 18 October)

Date Brightness Start Highest point End Pass type
(mag) Time Alt. Az. Time Alt. Az. Time Alt. Az.
19 Oct - 04:17:35 10° S 04:22:41 45° ESE 04:28:20 10° NE visible
19 Oct - 06:00:40 10° WSW 06:06:00 45° NW 06:11:52 10° NNE visible
19 Oct - 07:46:42 10° WNW 07:50:54 19° NNW 07:55:17 10° NNE daylight
19 Oct - 09:32:38 10° NNW 09:36:35 17° N 09:40:38 10° NE daylight
19 Oct - 11:16:19 10° NNW 11:21:53 31° NE 11:27:30 10° E daylight
19 Oct - 12:59:29 10° NW 13:05:53 85° WSW 13:12:15 10° SSE daylight
19 Oct - 14:43:59 10° WNW 14:48:22 20° WSW 14:52:43 10° SSW daylight
20 Oct - 03:44:03 10° S 03:48:50 33° ESE 03:54:03 10° NE visible
20 Oct - 05:26:21 10° SW 05:31:48 57° NW 05:37:50 10° NNE visible
20 Oct - 07:11:59 10° WNW 07:16:27 22° NNW 07:21:08 10° NNE daylight
20 Oct - 08:58:15 10° NW 09:02:04 17° N 09:05:58 10° NE daylight
20 Oct - 10:42:16 10° NNW 10:47:32 27° NNE 10:52:51 10° E daylight
20 Oct - 12:25:25 10° NW 12:31:49 76° NE 12:38:10 10° SE daylight
20 Oct - 14:09:25 10° NW 14:14:35 27° WSW 14:19:43 10° SSW daylight
21 Oct - 03:10:46 10° SSE 03:15:01 24° ESE 03:19:37 10° NE visible
21 Oct - 04:52:09 10° SW 04:57:40 73° NW 05:03:47 10° NE visible
21 Oct - 06:37:18 10° W 06:42:01 25° NNW 06:47:02 10° NNE visible
21 Oct - 08:23:46 10° NW 08:27:32 16° N 08:31:24 10° NE daylight
21 Oct - 10:08:12 10° NNW 10:13:07 23° NNE 10:18:07 10° ENE daylight
21 Oct - 11:51:23 10° NNW 11:57:41 60° NE 12:03:57 10° SE daylight
21 Oct - 13:35:02 10° NW 13:40:46 36° WSW 13:46:23 10° S daylight
22 Oct - 02:37:50 10° SE 02:41:18 17° ESE 02:44:57 10° ENE visible
22 Oct - 04:18:05 10° SSW 04:23:35 86° SE 04:29:42 10° NE visible
22 Oct - 06:02:41 10° W 06:07:38 29° NNW 06:12:59 10° NNE visible
22 Oct - 07:49:11 10° NW 07:53:00 17° N 07:56:57 10° NNE daylight
22 Oct - 09:34:05 10° NNW 09:38:41 21° NNE 09:43:22 10° ENE daylight
22 Oct - 11:17:21 10° NNW 11:23:30 48° NE 11:29:38 10° ESE daylight
22 Oct - 13:00:48 10° NW 13:06:52 47° WSW 13:12:51 10° S daylight
23 Oct - 02:05:36 10° ESE 02:07:37 12° E 02:09:41 10° ENE visible
23 Oct - 03:44:10 10° SSW 03:49:34 66° ESE 03:55:35 10° NE visible
23 Oct - 05:28:07 10° WSW 05:33:19 35° NW 05:38:56 10° NNE visible
23 Oct - 07:14:30 10° NW 07:18:29 18° N 07:22:37 10° NNE daylight
23 Oct - 08:59:54 10° NNW 09:04:12 19° NNE 09:08:35 10° ENE daylight
23 Oct - 10:43:19 10° NNW 10:49:15 39° NE 10:55:12 10° ESE daylight
23 Oct - 12:26:37 10° NW 12:32:55 62° WSW 12:39:07 10° SSE daylight
23 Oct - 14:12:18 10° WNW 14:15:01 13° W 14:17:43 10° SW daylight
24 Oct - 03:10:24 10° S 03:15:38 48° ESE 03:21:25 10° NE visible
24 Oct - 04:53:40 10° WSW 04:59:02 43° NW 05:04:55 10° NNE visible
24 Oct - 06:39:48 10° WNW 06:43:59 19° NNW 06:48:22 10° NNE visible
24 Oct - 08:25:39 10° NNW 08:29:42 18° N 08:33:50 10° NE daylight
24 Oct - 10:09:17 10° NNW 10:14:58 33° NE 10:20:39 10° E daylight
24 Oct - 11:52:30 10° NW 11:58:55 81° WSW 12:05:13 10° SSE daylight
24 Oct - 13:37:10 10° WNW 13:41:18 18° WSW 13:45:24 10° SW daylight
25 Oct - 02:36:49 10° S 02:41:45 36° ESE 02:47:09 10° NE visible
25 Oct - 04:19:19 10° WSW 04:24:49 54° NW 04:30:52 10° NNE visible
25 Oct - 06:05:04 10° WNW 06:09:31 21° NNW 06:14:12 10° NNE visible
25 Oct - 07:51:17 10° NW 07:55:11 17° N 07:59:09 10° NE daylight
25 Oct - 09:35:16 10° NNW 09:40:37 28° NNE 09:46:01 10° E daylight
25 Oct - 11:18:25 10° NW 11:24:51 80° NE 11:31:11 10° SE daylight
25 Oct - 13:02:32 10° NW 13:07:33 25° WSW 13:12:29 10° SSW daylight
26 Oct - 02:03:28 10° SSE 02:07:57 26° ESE 02:12:47 10° NE visible
26 Oct - 03:45:06 10° SW 03:50:40 69° NW 03:56:49 10° NE visible
26 Oct - 05:30:23 10° W 05:35:06 24° NNW 05:40:06 10° NNE visible
26 Oct - 07:16:50 10° NW 07:20:39 17° N 07:24:34 10° NE daylight
26 Oct - 09:01:11 10° NNW 09:06:13 24° NNE 09:11:18 10° ENE daylight
26 Oct - 10:44:22 10° NNW 10:50:44 64° NE 10:57:01 10° SE daylight
26 Oct - 12:28:07 10° NW 12:33:44 33° WSW 12:39:13 10° S daylight
27 Oct - 01:30:25 10° SSE 01:34:11 19° ESE 01:38:12 10° ENE visible
27 Oct - 03:11:00 10° SW 03:16:34 89° NW 03:22:45 10° NE visible
27 Oct - 04:55:44 10° W 05:00:42 28° NNW 05:06:01 10° NNE visible
27 Oct - 06:42:16 10° NW 06:46:07 17° N 06:50:05 10° NE visible
27 Oct - 08:27:04 10° NNW 08:31:48 21° NNE 08:36:33 10° ENE daylight
27 Oct - 10:10:20 10° NNW 10:16:33 51° NE 10:22:42 10° ESE daylight
27 Oct - 11:53:51 10° NW 11:59:51 44° WSW 12:05:44 10° S daylight
28 Oct - 00:57:55 10° SE 01:00:30 13° E 01:03:11 10° ENE visible
28 Oct - 02:37:03 10° SSW 02:42:33 71° ESE 02:48:39 10° NE visible
28 Oct - 04:21:09 10° W 04:26:22 33° NW 04:31:59 10° NNE visible
28 Oct - 06:07:36 10° NW 06:11:36 18° N 06:15:43 10° NNE visible
28 Oct - 07:52:55 10° NNW 07:57:19 19° NNE 08:01:47 10° ENE daylight
28 Oct - 09:36:19 10° NNW 09:42:19 41° NE 09:48:18 10° ESE daylight
28 Oct - 11:19:39 10° NW 11:25:56 58° WSW 11:32:02 10° SSE daylight
28 Oct - 13:05:46 10° W 13:07:56 12° W 13:10:04 10° WSW daylight
